Time,TemperatureF,DewpointF,PressureIn,WindDirection,WindDirectionDegrees,WindSpeedMPH,WindSpeedGustMPH,Humidity,HourlyPrecipIn,Conditions,Clouds,dailyrainin,SoftwareType,DateUTC
2013-06-25 00:00:00,79.1,70.5,29.98,East,100,0.0,2.0,75,0.00,,CLR,0.00,VWS V14.01,2013-06-25 05:00:00,
2013-06-25 00:02:00,78.7,70.5,29.99,WNW,294,0.0,0.0,76,0.00,,FEW025,0.00,VWS V14.01,2013-06-25 05:02:00,
2013-06-25 00:08:00,78.7,70.5,29.99,WNW,291,0.0,0.0,76,0.00,,FEW025,0.00,VWS V14.01,2013-06-25 05:08:00,
2013-06-25 00:10:00,78.9,70.7,29.98,WNW,294,0.0,7.0,76,0.00,,CLR,0.00,VWS V14.01,2013-06-25 05:10:00,
2013-06-25 00:13:00,78.5,70.7,29.99,WNW,291,0.0,2.0,77,0.00,,FEW025,0.00,VWS V14.01,2013-06-25 05:13:00,
2013-06-25 00:18:00,78.5,70.7,29.99,WNW,291,0.0,0.0,77,0.00,,FEW025,0.00,VWS V14.01,2013-06-25 05:18:00,
2013-06-25 00:20:00,78.7,70.5,29.99,WNW,291,0.0,3.0,76,0.00,,CLR,0.00,VWS V14.01,2013-06-25 05:20:00,
2013-06-25 00:23:00,78.3,70.5,29.99,WNW,291,0.0,1.0,77,0.00,,FEW025,0.00,VWS V14.01,2013-06-25 05:23:00,
2013-06-25 00:28:00,78.3,70.5,29.99,NNW,334,0.0,0.0,77,0.00,,FEW025,0.00,VWS V14.01,2013-06-25 05:28:00,
2013-06-25 00:30:00,78.5,70.7,29.99,WNW,291,0.0,2.0,77,0.00,,CLR,0.00,VWS V14.01,2013-06-25 05:30:00,
2013-06-25 00:33:00,78.3,70.5,29.99,NNW,334,0.0,1.0,77,0.00,,FEW025,0.00,VWS V14.01,2013-06-25 05:33:00,
2013-06-25 00:38:00,78.1,70.7,29.99,NNW,334,0.0,0.0,78,0.00,,FEW025,0.00,VWS V14.01,2013-06-25 05:38:00,
2013-06-25 00:40:00,78.3,70.5,29.99,NNW,334,0.0,2.0,77,0.00,,CLR,0.00,VWS V14.01,2013-06-25 05:40:00,
2013-06-25 00:43:00,78.1,70.7,29.99,NNW,334,0.0,0.0,78,0.00,,FEW025,0.00,VWS V14.01,2013-06-25 05:43:00,
2013-06-25 00:48:00,78.1,71.1,29.99,NNW,334,0.0,0.0,79,0.00,,FEW025,0.00,VWS V14.01,2013-06-25 05:48:00,
2013-06-25 00:50:00,78.3,70.9,29.99,NNW,334,0.0,1.0,78,0.00,,CLR,0.00,VWS V14.01,2013-06-25 05:50:00,
2013-06-25 00:53:00,78.1,71.1,29.99,NNW,334,0.0,2.0,79,0.00,,FEW025,0.00,VWS V14.01,2013-06-25 05:53:00,
2013-06-25 00:58:00,78.3,71.3,29.99,NNW,334,2.0,2.0,79,0.00,,FEW025,0.00,VWS V14.01,2013-06-25 05:58:00,
2013-06-25 01:00:00,78.1,71.1,29.99,NNW,334,0.0,0.0,79,0.00,,CLR,0.00,VWS V14.01,2013-06-25 06:00:00,
2013-06-25 01:03:00,78.3,71.3,29.99,NNW,334,0.0,2.0,79,0.00,,OVC033,0.00,VWS V14.01,2013-06-25 06:03:00,
2013-06-25 01:08:00,78.3,71.3,29.99,NNW,334,0.0,0.0,79,0.00,,OVC033,0.00,VWS V14.01,2013-06-25 06:08:00,
2013-06-25 01:10:00,78.1,71.1,29.99,NNW,334,0.0,2.0,79,0.00,,CLR,0.00,VWS V14.01,2013-06-25 06:10:00,
2013-06-25 01:13:00,78.3,71.3,29.99,NNW,334,0.0,1.0,79,0.00,,OVC033,0.00,VWS V14.01,2013-06-25 06:13:00,
2013-06-25 01:18:00,78.5,71.1,30.00,NNW,327,0.0,1.0,78,0.00,,OVC033,0.00,VWS V14.01,2013-06-25 06:18:00,
2013-06-25 01:20:00,78.3,71.3,29.99,NNW,334,0.0,2.0,79,0.00,,CLR,0.00,VWS V14.01,2013-06-25 06:20:00,
2013-06-25 01:23:00,78.5,71.4,30.00,NNW,327,0.0,1.0,79,0.00,,OVC033,0.00,VWS V14.01,2013-06-25 06:23:00,
2013-06-25 01:28:00,78.5,71.4,30.00,NNW,327,0.0,0.0,79,0.00,,OVC033,0.00,VWS V14.01,2013-06-25 06:28:00,
2013-06-25 01:30:00,78.5,71.4,30.00,NNW,327,0.0,2.0,79,0.00,,CLR,0.00,VWS V14.01,2013-06-25 06:30:00,
2013-06-25 01:33:00,78.7,71.6,29.99,NNW,327,0.0,1.0,79,0.00,,OVC033,0.00,VWS V14.01,2013-06-25 06:33:00,
2013-06-25 01:38:00,78.7,71.6,29.99,NNW,327,0.0,0.0,79,0.00,,OVC033,0.00,VWS V14.01,2013-06-25 06:38:00,
2013-06-25 01:40:00,78.5,71.4,30.00,NNW,327,0.0,1.0,79,0.00,,CLR,0.00,VWS V14.01,2013-06-25 06:40:00,
2013-06-25 01:43:00,78.7,71.6,29.99,SSE,157,4.0,7.0,79,0.00,,OVC033,0.00,VWS V14.01,2013-06-25 06:43:00,
2013-06-25 01:48:00,78.9,71.5,29.98,NNW,342,1.0,1.0,78,0.00,,OVC033,0.00,VWS V14.01,2013-06-25 06:48:00,
2013-06-25 01:50:00,78.7,71.6,29.99,NNW,327,0.0,1.0,79,0.00,,CLR,0.00,VWS V14.01,2013-06-25 06:50:00,
2013-06-25 01:53:00,78.9,71.5,29.98,NW,311,0.0,3.0,78,0.00,,OVC033,0.00,VWS V14.01,2013-06-25 06:53:00,
2013-06-25 01:58:00,78.9,71.5,29.98,NW,312,0.0,0.0,78,0.00,,OVC033,0.00,VWS V14.01,2013-06-25 06:58:00,
2013-06-25 02:00:00,78.9,71.5,29.98,NNW,342,0.0,7.0,78,0.00,,CLR,0.00,VWS V14.01,2013-06-25 07:00:00,
2013-06-25 02:03:00,78.9,71.5,29.98,NW,312,0.0,0.0,78,0.00,,OVC026,0.00,VWS V14.01,2013-06-25 07:03:00,
2013-06-25 02:08:00,78.9,71.5,29.98,NW,312,0.0,0.0,78,0.00,,OVC026,0.00,VWS V14.01,2013-06-25 07:08:00,
2013-06-25 02:10:00,78.9,71.5,29.98,NW,312,0.0,3.0,78,0.00,,CLR,0.00,VWS V14.01,2013-06-25 07:10:00,
2013-06-25 02:13:00,78.9,71.5,29.98,NW,312,0.0,0.0,78,0.00,,OVC026,0.00,VWS V14.01,2013-06-25 07:13:00,
2013-06-25 02:18:00,78.9,71.8,29.98,NW,312,0.0,0.0,79,0.00,,OVC026,0.00,VWS V14.01,2013-06-25 07:18:00,
2013-06-25 02:20:00,78.9,71.5,29.98,NW,312,0.0,1.0,78,0.00,,CLR,0.00,VWS V14.01,2013-06-25 07:20:00,
2013-06-25 02:23:00,78.9,71.8,29.98,WSW,248,0.0,2.0,79,0.00,,OVC026,0.00,VWS V14.01,2013-06-25 07:23:00,
2013-06-25 02:28:00,78.9,71.8,29.98,WSW,246,0.0,0.0,79,0.00,,OVC026,0.00,VWS V14.01,2013-06-25 07:28:00,
2013-06-25 02:30:00,78.9,71.8,29.98,NW,312,0.0,1.0,79,0.00,,CLR,0.00,VWS V14.01,2013-06-25 07:30:00,
2013-06-25 02:33:00,78.9,71.8,29.99,WSW,247,0.0,1.0,79,0.00,,OVC026,0.00,VWS V14.01,2013-06-25 07:33:00,
2013-06-25 02:38:00,78.9,71.8,29.99,WNW,302,2.0,2.0,79,0.00,,OVC026,0.00,VWS V14.01,2013-06-25 07:38:00,
2013-06-25 02:40:00,78.9,71.8,29.98,WSW,246,0.0,2.0,79,0.00,,CLR,0.00,VWS V14.01,2013-06-25 07:40:00,
2013-06-25 02:43:00,78.9,71.8,29.99,WNW,302,0.0,2.0,79,0.00,,OVC026,0.00,VWS V14.01,2013-06-25 07:43:00,
2013-06-25 02:48:00,78.9,71.8,29.99,NW,304,0.0,1.0,79,0.00,,OVC026,0.00,VWS V14.01,2013-06-25 07:48:00,
2013-06-25 02:50:00,78.9,71.8,29.99,WNW,303,0.0,1.0,79,0.00,,CLR,0.00,VWS V14.01,2013-06-25 07:50:00,
2013-06-25 02:53:00,78.9,71.8,29.99,NW,304,0.0,1.0,79,0.00,,OVC026,0.00,VWS V14.01,2013-06-25 07:53:00,
2013-06-25 02:58:00,78.9,71.8,29.99,WNW,292,0.0,0.0,79,0.00,,OVC026,0.00,VWS V14.01,2013-06-25 07:58:00,
2013-06-25 03:00:00,78.9,71.8,29.99,NW,304,1.0,2.0,79,0.00,,CLR,0.00,VWS V14.01,2013-06-25 08:00:00,
2013-06-25 03:03:00,78.7,71.6,29.99,North,351,0.0,5.0,79,0.00,,OVC028,0.00,VWS V14.01,2013-06-25 08:03:00,
2013-06-25 03:08:00,78.7,72.0,29.99,North,351,0.0,0.0,80,0.00,,OVC028,0.00,VWS V14.01,2013-06-25 08:08:00,
2013-06-25 03:10:00,78.9,71.8,29.99,WNW,292,0.0,5.0,79,0.00,,CLR,0.00,VWS V14.01,2013-06-25 08:10:00,
2013-06-25 03:13:00,78.7,72.0,29.99,North,351,0.0,0.0,80,0.00,,OVC028,0.00,VWS V14.01,2013-06-25 08:13:00,
2013-06-25 03:18:00,78.7,72.0,29.99,North,351,0.0,0.0,80,0.00,,OVC028,0.00,VWS V14.01,2013-06-25 08:18:00,
2013-06-25 03:20:00,78.7,72.0,29.99,North,351,0.0,5.0,80,0.00,,CLR,0.00,VWS V14.01,2013-06-25 08:20:00,
2013-06-25 03:23:00,78.7,72.0,29.99,North,351,0.0,1.0,80,0.00,,OVC028,0.00,VWS V14.01,2013-06-25 08:23:00,
2013-06-25 03:28:00,78.7,72.0,29.99,West,281,0.0,0.0,80,0.00,,OVC028,0.00,VWS V14.01,2013-06-25 08:28:00,
2013-06-25 03:30:00,78.7,72.0,29.99,North,351,0.0,0.0,80,0.00,,CLR,0.00,VWS V14.01,2013-06-25 08:30:00,
2013-06-25 03:33:00,78.7,72.0,29.99,West,281,0.0,0.0,80,0.00,,OVC030,0.00,VWS V14.01,2013-06-25 08:33:00,
2013-06-25 03:38:00,78.7,71.6,29.99,WSW,254,0.0,2.0,79,0.00,,OVC030,0.00,VWS V14.01,2013-06-25 08:38:00,
2013-06-25 03:40:00,78.7,72.0,29.99,West,281,0.0,3.0,80,0.00,,CLR,0.00,VWS V14.01,2013-06-25 08:40:00,
2013-06-25 03:43:00,78.7,71.6,29.99,WSW,254,0.0,2.0,79,0.00,,OVC030,0.00,VWS V14.01,2013-06-25 08:43:00,
2013-06-25 03:48:00,78.7,71.6,29.99,WSW,254,0.0,1.0,79,0.00,,OVC030,0.00,VWS V14.01,2013-06-25 08:48:00,
2013-06-25 03:50:00,78.7,71.6,29.99,SW,231,0.0,3.0,79,0.00,,CLR,0.00,VWS V14.01,2013-06-25 08:50:00,
2013-06-25 03:53:00,78.7,71.6,29.99,South,174,0.0,4.0,79,0.00,,OVC030,0.00,VWS V14.01,2013-06-25 08:53:00,
2013-06-25 03:58:00,78.7,71.6,29.99,SW,233,0.0,1.0,79,0.00,,OVC030,0.00,VWS V14.01,2013-06-25 08:58:00,
2013-06-25 04:00:00,78.7,71.6,29.99,WSW,254,0.0,2.0,79,0.00,,CLR,0.00,VWS V14.01,2013-06-25 09:00:00,
2013-06-25 04:03:00,78.7,71.6,29.99,West,273,0.0,2.0,79,0.00,,OVC030,0.00,VWS V14.01,2013-06-25 09:03:00,
2013-06-25 04:08:00,78.5,71.8,29.99,West,281,0.0,0.0,80,0.00,,OVC030,0.00,VWS V14.01,2013-06-25 09:08:00,
2013-06-25 04:10:00,78.7,71.6,29.99,SW,233,0.0,4.0,79,0.00,,CLR,0.00,VWS V14.01,2013-06-25 09:10:00,
2013-06-25 04:13:00,78.3,71.6,29.99,West,281,0.0,1.0,80,0.00,,OVC030,0.00,VWS V14.01,2013-06-25 09:13:00,
2013-06-25 04:18:00,78.3,72.0,29.99,West,281,0.0,0.0,81,0.00,,OVC030,0.00,VWS V14.01,2013-06-25 09:18:00,
2013-06-25 04:20:00,78.5,71.8,29.99,West,281,0.0,3.0,80,0.00,,CLR,0.00,VWS V14.01,2013-06-25 09:20:00,
2013-06-25 04:23:00,78.1,71.8,29.99,West,281,0.0,0.0,81,0.00,,OVC030,0.00,VWS V14.01,2013-06-25 09:23:00,
2013-06-25 04:28:00,78.0,71.7,29.99,West,281,0.0,0.0,81,0.00,,OVC030,0.00,VWS V14.01,2013-06-25 09:28:00,
2013-06-25 04:30:00,78.3,72.0,29.99,West,281,0.0,1.0,81,0.00,,CLR,0.00,VWS V14.01,2013-06-25 09:30:00,
2013-06-25 04:33:00,77.8,71.9,29.98,West,281,0.0,0.0,82,0.00,,OVC030,0.00,VWS V14.01,2013-06-25 09:33:00,
2013-06-25 04:38:00,77.8,71.9,29.98,WSW,258,0.0,0.0,82,0.00,,OVC030,0.00,VWS V14.01,2013-06-25 09:38:00,
2013-06-25 04:40:00,78.0,71.7,29.99,West,281,0.0,0.0,81,0.00,,CLR,0.00,VWS V14.01,2013-06-25 09:40:00,
2013-06-25 04:43:00,77.6,71.7,29.98,WSW,258,0.0,0.0,82,0.00,,OVC030,0.00,VWS V14.01,2013-06-25 09:43:00,
2013-06-25 04:48:00,77.6,72.0,29.98,West,274,0.0,0.0,83,0.00,,OVC030,0.00,VWS V14.01,2013-06-25 09:48:00,
2013-06-25 04:50:00,77.8,71.9,29.98,WSW,258,0.0,5.0,82,0.00,,CLR,0.00,VWS V14.01,2013-06-25 09:50:00,
2013-06-25 04:53:00,77.6,72.0,29.98,West,278,0.0,2.0,83,0.00,,OVC030,0.00,VWS V14.01,2013-06-25 09:53:00,
2013-06-25 04:58:00,77.6,72.0,29.98,NNW,334,1.0,1.0,83,0.00,,OVC030,0.00,VWS V14.01,2013-06-25 09:58:00,
2013-06-25 05:00:00,77.6,72.0,29.98,West,274,0.0,2.0,83,0.00,,CLR,0.00,VWS V14.01,2013-06-25 10:00:00,
2013-06-25 05:03:00,77.6,72.0,29.98,NW,318,0.0,2.0,83,0.00,,FEW034,0.00,VWS V14.01,2013-06-25 10:03:00,
2013-06-25 05:08:00,77.4,71.8,29.98,NW,318,0.0,0.0,83,0.00,,FEW034,0.00,VWS V14.01,2013-06-25 10:08:00,
2013-06-25 05:10:00,77.6,72.0,29.98,NNW,334,0.0,4.0,83,0.00,,CLR,0.00,VWS V14.01,2013-06-25 10:10:00,
2013-06-25 05:13:00,77.4,71.8,29.98,NW,318,0.0,0.0,83,0.00,,FEW034,0.00,VWS V14.01,2013-06-25 10:13:00,
2013-06-25 05:18:00,77.2,71.6,29.98,NNW,330,0.0,0.0,83,0.00,,FEW034,0.00,VWS V14.01,2013-06-25 10:18:00,
2013-06-25 05:20:00,77.4,71.8,29.98,NW,318,0.0,2.0,83,0.00,,CLR,0.00,VWS V14.01,2013-06-25 10:20:00,
2013-06-25 05:23:00,77.2,71.6,29.98,NNW,330,0.0,0.0,83,0.00,,FEW034,0.00,VWS V14.01,2013-06-25 10:23:00,
2013-06-25 05:28:00,77.1,71.5,29.98,NNW,330,0.0,0.0,83,0.00,,FEW034,0.00,VWS V14.01,2013-06-25 10:28:00,
2013-06-25 05:30:00,77.4,71.8,29.98,NNW,330,0.0,3.0,83,0.00,,CLR,0.00,VWS V14.01,2013-06-25 10:30:00,
2013-06-25 05:33:00,77.1,71.5,29.98,NNW,330,0.0,0.0,83,0.00,,BKN028,0.00,VWS V14.01,2013-06-25 10:33:00,
2013-06-25 05:38:00,76.9,71.3,29.98,NNW,330,0.0,0.0,83,0.00,,BKN028,0.00,VWS V14.01,2013-06-25 10:38:00,
2013-06-25 05:40:00,77.1,71.5,29.98,NNW,329,0.0,0.0,83,0.00,,CLR,0.00,VWS V14.01,2013-06-25 10:40:00,
2013-06-25 05:43:00,76.7,71.5,29.98,NNW,330,0.0,0.0,84,0.00,,SCT028,0.00,VWS V14.01,2013-06-25 10:43:00,
2013-06-25 05:48:00,76.7,71.5,29.97,NNW,330,0.0,0.0,84,0.00,,SCT028,0.00,VWS V14.01,2013-06-25 10:48:00,
2013-06-25 05:50:00,76.9,71.3,29.98,NNW,330,0.0,0.0,83,0.00,,CLR,0.00,VWS V14.01,2013-06-25 10:50:00,
2013-06-25 05:53:00,76.7,71.9,29.97,NNW,330,0.0,0.0,85,0.00,,SCT028,0.00,VWS V14.01,2013-06-25 10:53:00,
2013-06-25 05:58:00,76.5,71.7,29.97,NNW,330,0.0,0.0,85,0.00,,SCT028,0.00,VWS V14.01,2013-06-25 10:58:00,
2013-06-25 06:00:00,76.7,71.5,29.97,NNW,330,0.0,0.0,84,0.00,,CLR,0.00,VWS V14.01,2013-06-25 11:00:00,
2013-06-25 06:03:00,76.5,71.7,29.97,NNW,330,0.0,0.0,85,0.00,,CLR,0.00,VWS V14.01,2013-06-25 11:03:00,
2013-06-25 06:08:00,76.5,71.7,29.97,NNW,330,0.0,0.0,85,0.00,,CLR,0.00,VWS V14.01,2013-06-25 11:08:00,
2013-06-25 06:10:00,76.5,71.7,29.97,NNW,330,0.0,0.0,85,0.00,,CLR,0.00,VWS V14.01,2013-06-25 11:10:00,
2013-06-25 06:13:00,76.3,71.5,29.97,NNW,329,0.0,2.0,85,0.00,,CLR,0.00,VWS V14.01,2013-06-25 11:13:00,
2013-06-25 06:18:00,76.3,71.5,29.97,NNW,329,0.0,0.0,85,0.00,,CLR,0.00,VWS V14.01,2013-06-25 11:18:00,
2013-06-25 06:20:00,76.5,71.7,29.97,NNW,330,0.0,0.0,85,0.00,,CLR,0.00,VWS V14.01,2013-06-25 11:20:00,
2013-06-25 06:23:00,76.2,71.4,29.97,NNW,329,0.0,0.0,85,0.00,,CLR,0.00,VWS V14.01,2013-06-25 11:23:00,
2013-06-25 06:28:00,76.2,71.4,29.97,NNW,329,0.0,0.0,85,0.00,,CLR,0.00,VWS V14.01,2013-06-25 11:28:00,
2013-06-25 06:30:00,76.3,71.5,29.97,NNW,329,0.0,2.0,85,0.00,,CLR,0.00,VWS V14.01,2013-06-25 11:30:00,
2013-06-25 06:33:00,76.0,71.2,29.98,NNW,329,0.0,0.0,85,0.00,,BKN022,0.00,VWS V14.01,2013-06-25 11:33:00,
2013-06-25 06:38:00,76.0,71.2,29.98,NNW,329,0.0,0.0,85,0.00,,BKN022,0.00,VWS V14.01,2013-06-25 11:38:00,
2013-06-25 06:40:00,76.2,71.4,29.97,NNW,329,0.0,0.0,85,0.00,,CLR,0.00,VWS V14.01,2013-06-25 11:40:00,
2013-06-25 06:43:00,75.8,71.3,29.98,NNW,329,0.0,0.0,86,0.00,,BKN022,0.00,VWS V14.01,2013-06-25 11:43:00,
2013-06-25 06:48:00,75.8,71.3,29.98,NNW,329,0.0,0.0,86,0.00,,BKN022,0.00,VWS V14.01,2013-06-25 11:48:00,
2013-06-25 06:50:00,76.0,71.2,29.98,NNW,329,0.0,0.0,85,0.00,,CLR,0.00,VWS V14.01,2013-06-25 11:50:00,
2013-06-25 06:53:00,75.8,71.3,29.98,NNW,329,0.0,0.0,86,0.00,,BKN022,0.00,VWS V14.01,2013-06-25 11:53:00,
2013-06-25 06:58:00,75.6,71.1,29.98,NNW,329,0.0,0.0,86,0.00,,BKN022,0.00,VWS V14.01,2013-06-25 11:58:00,
2013-06-25 07:00:00,75.8,71.3,29.98,NNW,329,0.0,0.0,86,0.00,,CLR,0.00,VWS V14.01,2013-06-25 12:00:00,
2013-06-25 07:03:00,75.6,71.1,29.98,NNW,329,0.0,0.0,86,0.00,,OVC020,0.00,VWS V14.01,2013-06-25 12:03:00,
2013-06-25 07:08:00,75.6,71.5,29.98,NNW,329,0.0,0.0,87,0.00,,OVC020,0.00,VWS V14.01,2013-06-25 12:08:00,
2013-06-25 07:10:00,75.6,71.1,29.98,NNW,329,0.0,0.0,86,0.00,,CLR,0.00,VWS V14.01,2013-06-25 12:10:00,
2013-06-25 07:13:00,75.6,71.5,29.98,NNW,329,0.0,2.0,87,0.00,,OVC020,0.00,VWS V14.01,2013-06-25 12:13:00,
2013-06-25 07:18:00,75.8,71.7,29.98,NNW,329,0.0,0.0,87,0.00,,OVC020,0.00,VWS V14.01,2013-06-25 12:18:00,
2013-06-25 07:20:00,75.6,71.5,29.98,NNW,329,0.0,0.0,87,0.00,,CLR,0.00,VWS V14.01,2013-06-25 12:20:00,
2013-06-25 07:23:00,76.0,71.9,29.98,NNW,329,0.0,0.0,87,0.00,,OVC020,0.00,VWS V14.01,2013-06-25 12:23:00,
2013-06-25 07:28:00,76.2,72.1,29.98,NNW,329,0.0,0.0,87,0.00,,OVC020,0.00,VWS V14.01,2013-06-25 12:28:00,
2013-06-25 07:30:00,75.8,71.7,29.98,NNW,329,0.0,2.0,87,0.00,,CLR,0.00,VWS V14.01,2013-06-25 12:30:00,
2013-06-25 07:33:00,76.3,72.2,29.98,NNW,330,0.0,4.0,87,0.00,,OVC020,0.00,VWS V14.01,2013-06-25 12:33:00,
2013-06-25 07:38:00,76.3,72.2,29.98,NNW,329,0.0,0.0,87,0.00,,OVC020,0.00,VWS V14.01,2013-06-25 12:38:00,
2013-06-25 07:40:00,76.0,71.9,29.98,NNW,329,0.0,3.0,87,0.00,,CLR,0.00,VWS V14.01,2013-06-25 12:40:00,
2013-06-25 07:43:00,76.5,72.0,29.98,NNE,12,0.0,3.0,86,0.00,,OVC020,0.00,VWS V14.01,2013-06-25 12:43:00,
2013-06-25 07:48:00,76.5,72.3,29.99,NNE,12,0.0,0.0,87,0.00,,OVC020,0.00,VWS V14.01,2013-06-25 12:48:00,
2013-06-25 07:50:00,76.3,72.2,29.98,NNW,330,0.0,4.0,87,0.00,,CLR,0.00,VWS V14.01,2013-06-25 12:50:00,
2013-06-25 07:53:00,76.5,72.0,29.99,NNE,12,0.0,1.0,86,0.00,,OVC020,0.00,VWS V14.01,2013-06-25 12:53:00,
2013-06-25 07:58:00,76.3,71.8,29.99,WSW,257,0.0,4.0,86,0.00,,OVC020,0.00,VWS V14.01,2013-06-25 12:58:00,
2013-06-25 08:00:00,76.5,72.0,29.99,NNE,12,0.0,3.0,86,0.00,,CLR,0.00,VWS V14.01,2013-06-25 13:00:00,
2013-06-25 08:03:00,76.5,72.3,30.00,WSW,257,0.0,4.0,87,0.00,,OVC020,0.00,VWS V14.01,2013-06-25 13:03:00,
2013-06-25 08:08:00,76.7,72.2,30.00,NW,311,0.0,0.0,86,0.00,,OVC020,0.00,VWS V14.01,2013-06-25 13:08:00,
2013-06-25 08:10:00,76.3,72.2,29.99,NNE,12,0.0,4.0,87,0.00,,CLR,0.00,VWS V14.01,2013-06-25 13:10:00,
2013-06-25 08:13:00,76.9,72.1,30.00,SW,231,1.0,6.0,85,0.00,,OVC020,0.00,VWS V14.01,2013-06-25 13:13:00,
2013-06-25 08:18:00,77.1,71.9,30.00,SW,231,0.0,1.0,84,0.00,,OVC020,0.00,VWS V14.01,2013-06-25 13:18:00,
2013-06-25 08:20:00,76.5,72.0,30.00,NW,311,0.0,4.0,86,0.00,,CLR,0.00,VWS V14.01,2013-06-25 13:20:00,
2013-06-25 08:23:00,77.2,71.6,30.00,NNW,348,0.0,3.0,83,0.00,,OVC020,0.00,VWS V14.01,2013-06-25 13:23:00,
2013-06-25 08:28:00,77.4,71.5,30.00,NNW,345,0.0,2.0,82,0.00,,OVC020,0.00,VWS V14.01,2013-06-25 13:28:00,
2013-06-25 08:30:00,77.1,71.9,30.00,SW,231,0.0,6.0,84,0.00,,CLR,0.00,VWS V14.01,2013-06-25 13:30:00,
2013-06-25 08:33:00,77.8,71.9,30.00,North,355,0.0,4.0,82,0.00,,OVC020,0.00,VWS V14.01,2013-06-25 13:33:00,
2013-06-25 08:38:00,78.3,72.0,30.00,North,355,1.0,1.0,81,0.00,,OVC020,0.00,VWS V14.01,2013-06-25 13:38:00,
2013-06-25 08:40:00,77.4,71.8,30.00,NNW,348,0.0,3.0,83,0.00,,CLR,0.00,VWS V14.01,2013-06-25 13:40:00,
2013-06-25 08:43:00,78.7,71.6,30.00,North,355,0.0,2.0,79,0.00,,OVC020,0.00,VWS V14.01,2013-06-25 13:43:00,
2013-06-25 08:48:00,79.1,71.7,30.00,NW,324,0.0,3.0,78,0.00,,OVC020,0.00,VWS V14.01,2013-06-25 13:48:00,
2013-06-25 08:50:00,78.1,71.8,30.00,North,355,0.0,4.0,81,0.00,,CLR,0.00,VWS V14.01,2013-06-25 13:50:00,
2013-06-25 08:53:00,79.8,71.9,30.00,West,260,2.0,3.0,77,0.00,,OVC020,0.00,VWS V14.01,2013-06-25 13:53:00,
2013-06-25 08:58:00,80.2,71.6,30.00,West,259,0.0,1.0,75,0.00,,OVC020,0.00,VWS V14.01,2013-06-25 13:58:00,
2013-06-25 09:00:00,79.1,72.0,30.00,North,355,0.0,3.0,79,0.00,,CLR,0.00,VWS V14.01,2013-06-25 14:00:00,
2013-06-25 09:03:00,80.7,71.7,30.00,West,259,0.0,3.0,74,0.00,,OVC020,0.00,VWS V14.01,2013-06-25 14:03:00,
2013-06-25 09:08:00,81.1,71.6,30.00,ENE,65,0.0,3.0,73,0.00,,BKN028,0.00,VWS V14.01,2013-06-25 14:08:00,
2013-06-25 09:10:00,80.0,71.8,30.00,West,259,0.0,3.0,76,0.00,,CLR,0.00,VWS V14.01,2013-06-25 14:10:00,
2013-06-25 09:13:00,81.3,71.4,30.00,ENE,73,0.0,3.0,72,0.00,,BKN031,0.00,VWS V14.01,2013-06-25 14:13:00,
2013-06-25 09:18:00,81.7,71.0,30.00,NNW,339,0.0,2.0,70,0.00,,BKN031,0.00,VWS V14.01,2013-06-25 14:18:00,
2013-06-25 09:20:00,80.9,72.2,30.00,West,259,0.0,3.0,75,0.00,,CLR,0.00,VWS V14.01,2013-06-25 14:20:00,
2013-06-25 09:23:00,82.3,71.5,30.00,NNW,339,0.0,2.0,70,0.00,,BKN031,0.00,VWS V14.01,2013-06-25 14:23:00,
2013-06-25 09:28:00,82.7,71.9,30.00,WSW,237,0.0,1.0,70,0.00,,BKN031,0.00,VWS V14.01,2013-06-25 14:28:00,
2013-06-25 09:30:00,81.7,71.4,30.00,NNW,339,1.0,3.0,71,0.00,,CLR,0.00,VWS V14.01,2013-06-25 14:30:00,
2013-06-25 09:33:00,82.7,70.6,30.01,WSW,238,0.0,2.0,67,0.00,,BKN031,0.00,VWS V14.01,2013-06-25 14:33:00,
2013-06-25 09:38:00,82.9,70.8,30.01,NE,36,0.0,2.0,67,0.00,,BKN031,0.00,VWS V14.01,2013-06-25 14:38:00,
2013-06-25 09:40:00,82.7,71.9,30.00,WSW,251,0.0,2.0,70,0.00,,CLR,0.00,VWS V14.01,2013-06-25 14:40:00,
2013-06-25 09:43:00,83.1,70.1,30.01,NNW,343,0.0,3.0,65,0.00,,BKN031,0.00,VWS V14.01,2013-06-25 14:43:00,
2013-06-25 09:48:00,83.3,70.3,30.01,WSW,238,0.0,3.0,65,0.00,,BKN031,0.00,VWS V14.01,2013-06-25 14:48:00,
2013-06-25 09:50:00,82.9,71.3,30.01,NE,36,2.0,3.0,68,0.00,,CLR,0.00,VWS V14.01,2013-06-25 14:50:00,
2013-06-25 09:53:00,83.5,70.5,30.01,South,190,0.0,3.0,65,0.00,,BKN031,0.00,VWS V14.01,2013-06-25 14:53:00,
2013-06-25 09:58:00,83.6,70.6,30.01,South,188,1.0,2.0,65,0.00,,BKN031,0.00,VWS V14.01,2013-06-25 14:58:00,
2013-06-25 10:00:00,83.3,69.9,30.01,WSW,239,0.0,3.0,64,0.00,,CLR,0.00,VWS V14.01,2013-06-25 15:00:00,
2013-06-25 10:03:00,84.0,69.6,30.00,SSW,208,3.0,6.0,62,0.00,,BKN031,0.00,VWS V14.01,2013-06-25 15:03:00,
2013-06-25 10:08:00,84.2,69.8,30.00,SW,227,0.0,2.0,62,0.00,,SCT027,0.00,VWS V14.01,2013-06-25 15:08:00,
2013-06-25 10:10:00,83.5,70.1,30.01,South,190,0.0,3.0,64,0.00,,CLR,0.00,VWS V14.01,2013-06-25 15:10:00,
2013-06-25 10:13:00,84.8,69.9,30.00,ENE,61,1.0,4.0,61,0.00,,SCT027,0.00,VWS V14.01,2013-06-25 15:13:00,
2013-06-25 10:18:00,85.0,68.6,30.00,North,5,0.0,1.0,58,0.00,,SCT027,0.00,VWS V14.01,2013-06-25 15:18:00,
2013-06-25 10:20:00,84.2,70.2,30.00,SW,219,2.0,6.0,63,0.00,,CLR,0.00,VWS V14.01,2013-06-25 15:20:00,
2013-06-25 10:23:00,85.4,69.4,30.00,North,5,0.0,1.0,59,0.00,,SCT027,0.00,VWS V14.01,2013-06-25 15:23:00,
2013-06-25 10:28:00,86.0,69.0,30.00,SSW,195,0.0,3.0,57,0.00,,SCT027,0.00,VWS V14.01,2013-06-25 15:28:00,
2013-06-25 10:30:00,85.0,68.6,30.00,North,5,0.0,4.0,58,0.00,,CLR,0.00,VWS V14.01,2013-06-25 15:30:00,
2013-06-25 10:33:00,86.0,67.4,30.00,North,355,2.0,4.0,54,0.00,,SCT027,0.00,VWS V14.01,2013-06-25 15:33:00,
2013-06-25 10:38:00,86.0,67.4,30.00,SSW,197,0.0,3.0,54,0.00,,SCT027,0.00,VWS V14.01,2013-06-25 15:38:00,
2013-06-25 10:40:00,85.8,69.8,30.00,SSW,200,3.0,5.0,59,0.00,,CLR,0.00,VWS V14.01,2013-06-25 15:40:00,
2013-06-25 10:43:00,86.2,67.1,30.00,South,178,0.0,4.0,53,0.00,,SCT027,0.00,VWS V14.01,2013-06-25 15:43:00,
2013-06-25 10:48:00,86.7,67.0,30.00,NNE,26,3.0,5.0,52,0.00,,SCT027,0.00,VWS V14.01,2013-06-25 15:48:00,
2013-06-25 10:50:00,86.2,67.6,30.00,NE,35,2.0,6.0,54,0.00,,CLR,0.00,VWS V14.01,2013-06-25 15:50:00,
2013-06-25 10:53:00,86.9,67.2,30.00,SE,138,0.0,5.0,52,0.00,,SCT027,0.00,VWS V14.01,2013-06-25 15:53:00,
2013-06-25 10:58:00,87.3,68.6,30.00,WNW,291,0.0,1.0,54,0.00,,SCT027,0.00,VWS V14.01,2013-06-25 15:58:00,
2013-06-25 11:00:00,86.5,67.4,30.00,South,188,0.0,4.0,53,0.00,,CLR,0.00,VWS V14.01,2013-06-25 16:00:00,
2013-06-25 11:03:00,87.5,66.6,30.00,SW,219,1.0,4.0,50,0.00,,SCT027,0.00,VWS V14.01,2013-06-25 16:03:00,
2013-06-25 11:08:00,87.5,66.6,30.00,South,174,0.0,1.0,50,0.00,,CLR,0.00,VWS V14.01,2013-06-25 16:08:00,
2013-06-25 11:10:00,87.3,68.1,30.00,WNW,292,0.0,5.0,53,0.00,,CLR,0.00,VWS V14.01,2013-06-25 16:10:00,
2013-06-25 11:13:00,87.7,66.2,30.00,NW,308,2.0,4.0,49,0.00,,CLR,0.00,VWS V14.01,2013-06-25 16:13:00,
2013-06-25 11:18:00,88.1,67.7,30.00,SE,130,2.0,2.0,51,0.00,,CLR,0.00,VWS V14.01,2013-06-25 16:18:00,
2013-06-25 11:20:00,87.5,66.0,30.00,SSW,198,1.0,4.0,49,0.00,,CLR,0.00,VWS V14.01,2013-06-25 16:20:00,
2013-06-25 11:23:00,88.3,67.9,30.00,West,261,0.0,6.0,51,0.00,,CLR,0.00,VWS V14.01,2013-06-25 16:23:00,
2013-06-25 11:28:00,88.8,69.5,30.00,NW,324,0.0,2.0,53,0.00,,CLR,0.00,VWS V14.01,2013-06-25 16:28:00,
2013-06-25 11:30:00,87.9,67.0,30.00,NNE,22,1.0,4.0,50,0.00,,CLR,0.00,VWS V14.01,2013-06-25 16:30:00,
2013-06-25 11:33:00,89.2,67.6,29.99,NE,46,0.0,3.0,49,0.00,,CLR,0.00,VWS V14.01,2013-06-25 16:33:00,
2013-06-25 11:38:00,89.6,67.3,29.99,NNE,19,0.0,1.0,48,0.00,,CLR,0.00,VWS V14.01,2013-06-25 16:38:00,
2013-06-25 11:40:00,88.5,68.1,30.00,NW,321,2.0,6.0,51,0.00,,CLR,0.00,VWS V14.01,2013-06-25 16:40:00,
2013-06-25 11:43:00,89.6,66.7,29.99,North,355,0.0,4.0,47,0.00,,CLR,0.00,VWS V14.01,2013-06-25 16:43:00,
2013-06-25 11:48:00,90.0,67.7,29.98,WSW,253,0.0,3.0,48,0.00,,CLR,0.00,VWS V14.01,2013-06-25 16:48:00,
2013-06-25 11:50:00,89.4,67.7,29.99,NNE,14,0.0,3.0,49,0.00,,CLR,0.00,VWS V14.01,2013-06-25 16:50:00,
2013-06-25 11:53:00,90.5,68.8,29.98,SSW,207,3.0,3.0,49,0.00,,CLR,0.00,VWS V14.01,2013-06-25 16:53:00,
2013-06-25 11:58:00,90.7,68.3,29.98,SSW,192,0.0,1.0,48,0.00,,CLR,0.00,VWS V14.01,2013-06-25 16:58:00,
2013-06-25 12:00:00,89.8,68.7,29.98,North,5,2.0,4.0,50,0.00,,CLR,0.00,VWS V14.01,2013-06-25 17:00:00,
2013-06-25 12:03:00,90.9,67.3,29.98,SW,225,0.0,3.0,46,0.00,,CLR,0.00,VWS V14.01,2013-06-25 17:03:00,
2013-06-25 12:08:00,91.3,69.5,29.98,SW,235,1.0,1.0,49,0.00,,CLR,0.00,VWS V14.01,2013-06-25 17:08:00,
2013-06-25 12:10:00,90.7,67.7,29.98,South,190,0.0,5.0,47,0.00,,CLR,0.00,VWS V14.01,2013-06-25 17:10:00,
2013-06-25 12:13:00,91.6,65.3,29.98,South,182,0.0,5.0,42,0.00,,CLR,0.00,VWS V14.01,2013-06-25 17:13:00,
2013-06-25 12:18:00,91.8,67.4,29.98,NNW,329,1.0,1.0,45,0.00,,CLR,0.00,VWS V14.01,2013-06-25 17:18:00,
2013-06-25 12:20:00,91.1,68.7,29.98,SW,221,0.0,3.0,48,0.00,,CLR,0.00,VWS V14.01,2013-06-25 17:20:00,
2013-06-25 12:23:00,92.0,66.3,29.98,NW,312,0.0,2.0,43,0.00,,CLR,0.00,VWS V14.01,2013-06-25 17:23:00,
2013-06-25 12:28:00,92.2,65.1,29.98,South,177,1.0,4.0,41,0.00,,CLR,0.00,VWS V14.01,2013-06-25 17:28:00,
2013-06-25 12:30:00,91.8,67.4,29.98,NNW,331,0.0,5.0,45,0.00,,CLR,0.00,VWS V14.01,2013-06-25 17:30:00,
2013-06-25 12:33:00,92.4,64.6,29.97,NNE,23,0.0,4.0,40,0.00,,CLR,0.00,VWS V14.01,2013-06-25 17:33:00,
2013-06-25 12:38:00,92.7,64.1,29.97,SSW,206,0.0,3.0,39,0.00,,CLR,0.00,VWS V14.01,2013-06-25 17:38:00,
2013-06-25 12:40:00,92.2,66.5,29.98,SW,223,0.0,3.0,43,0.00,,CLR,0.00,VWS V14.01,2013-06-25 17:40:00,
2013-06-25 12:43:00,92.9,65.8,29.97,SSW,211,1.0,3.0,41,0.00,,CLR,0.00,VWS V14.01,2013-06-25 17:43:00,
2013-06-25 12:48:00,93.1,68.0,29.97,SW,214,0.0,1.0,44,0.00,,CLR,0.00,VWS V14.01,2013-06-25 17:48:00,
2013-06-25 12:50:00,92.7,64.9,29.97,SSW,203,3.0,4.0,40,0.00,,CLR,0.00,VWS V14.01,2013-06-25 17:50:00,
2013-06-25 12:53:00,93.3,66.1,29.97,WSW,256,0.0,3.0,41,0.00,,CLR,0.00,VWS V14.01,2013-06-25 17:53:00,
2013-06-25 12:58:00,93.8,65.8,29.97,SSW,213,0.0,3.0,40,0.00,,CLR,0.00,VWS V14.01,2013-06-25 17:58:00,
2013-06-25 13:00:00,93.1,65.9,29.97,SSW,211,0.0,4.0,41,0.00,,CLR,0.00,VWS V14.01,2013-06-25 18:00:00,
2013-06-25 13:03:00,94.0,68.1,29.96,SSW,198,0.0,4.0,43,0.00,,CLR,0.00,VWS V14.01,2013-06-25 18:03:00,
2013-06-25 13:08:00,94.4,64.1,29.96,SSW,200,0.0,1.0,37,0.00,,CLR,0.00,VWS V14.01,2013-06-25 18:08:00,
2013-06-25 13:10:00,93.5,68.3,29.97,WSW,254,0.0,3.0,44,0.00,,CLR,0.00,VWS V14.01,2013-06-25 18:10:00,
2013-06-25 13:13:00,94.4,64.1,29.96,ENE,73,0.0,3.0,37,0.00,,CLR,0.00,VWS V14.01,2013-06-25 18:13:00,
2013-06-25 13:18:00,94.6,65.8,29.96,NE,37,0.0,1.0,39,0.00,,CLR,0.00,VWS V14.01,2013-06-25 18:18:00,
2013-06-25 13:20:00,94.2,68.3,29.96,SSW,200,0.0,4.0,43,0.00,,CLR,0.00,VWS V14.01,2013-06-25 18:20:00,
2013-06-25 13:23:00,94.9,66.1,29.96,NE,37,0.0,1.0,39,0.00,,CLR,0.00,VWS V14.01,2013-06-25 18:23:00,
2013-06-25 13:28:00,95.1,67.0,29.96,NE,37,0.0,2.0,40,0.00,,CLR,0.00,VWS V14.01,2013-06-25 18:28:00,
2013-06-25 13:30:00,94.4,63.4,29.96,NE,37,1.0,3.0,36,0.00,,CLR,0.00,VWS V14.01,2013-06-25 18:30:00,
2013-06-25 13:33:00,95.4,65.8,29.95,SSE,163,0.0,4.0,38,0.00,,CLR,0.00,VWS V14.01,2013-06-25 18:33:00,
2013-06-25 13:38:00,95.4,66.5,29.95,ENE,72,1.0,3.0,39,0.00,,CLR,0.00,VWS V14.01,2013-06-25 18:38:00,
2013-06-25 13:40:00,94.9,66.8,29.96,NE,37,0.0,1.0,40,0.00,,CLR,0.00,VWS V14.01,2013-06-25 18:40:00,
2013-06-25 13:43:00,95.6,66.0,29.95,South,191,0.0,4.0,38,0.00,,CLR,0.00,VWS V14.01,2013-06-25 18:43:00,
2013-06-25 13:48:00,95.6,66.0,29.94,SW,219,0.0,2.0,38,0.00,,CLR,0.00,VWS V14.01,2013-06-25 18:48:00,
2013-06-25 13:50:00,95.4,65.0,29.95,South,172,0.0,5.0,37,0.00,,CLR,0.00,VWS V14.01,2013-06-25 18:50:00,
2013-06-25 13:53:00,95.6,65.2,29.94,SW,221,0.0,4.0,37,0.00,,CLR,0.00,VWS V14.01,2013-06-25 18:53:00,
2013-06-25 13:58:00,95.8,64.6,29.94,SW,223,2.0,2.0,36,0.00,,CLR,0.00,VWS V14.01,2013-06-25 18:58:00,
2013-06-25 14:00:00,95.6,64.4,29.94,WSW,248,1.0,4.0,36,0.00,,CLR,0.00,VWS V14.01,2013-06-25 19:00:00,
2013-06-25 14:04:00,95.8,65.4,29.93,NW,306,0.0,5.0,37,0.00,,CLR,0.00,VWS V14.01,2013-06-25 19:04:00,
2013-06-25 14:09:00,95.8,66.1,29.93,WSW,252,0.0,3.0,38,0.00,,CLR,0.00,VWS V14.01,2013-06-25 19:09:00,
2013-06-25 14:10:00,95.6,64.4,29.94,SW,221,0.0,4.0,36,0.00,,CLR,0.00,VWS V14.01,2013-06-25 19:10:00,
2013-06-25 14:14:00,95.8,63.0,29.93,WNW,290,2.0,4.0,34,0.00,,CLR,0.00,VWS V14.01,2013-06-25 19:14:00,
2013-06-25 14:19:00,95.8,63.0,29.93,North,355,0.0,1.0,34,0.00,,CLR,0.00,VWS V14.01,2013-06-25 19:19:00,
2013-06-25 14:20:00,95.8,64.6,29.93,WSW,253,0.0,5.0,36,0.00,,CLR,0.00,VWS V14.01,2013-06-25 19:20:00,
2013-06-25 14:24:00,95.8,62.1,29.93,West,268,0.0,4.0,33,0.00,,CLR,0.00,VWS V14.01,2013-06-25 19:24:00,
2013-06-25 14:29:00,95.6,65.2,29.93,SSW,206,0.0,3.0,37,0.00,,CLR,0.00,VWS V14.01,2013-06-25 19:29:00,
2013-06-25 14:30:00,95.8,63.8,29.93,North,355,1.0,5.0,35,0.00,,CLR,0.00,VWS V14.01,2013-06-25 19:30:00,
2013-06-25 14:34:00,95.6,66.7,29.93,North,5,0.0,4.0,39,0.00,,CLR,0.00,VWS V14.01,2013-06-25 19:34:00,
2013-06-25 14:39:00,95.4,63.4,29.93,NNE,19,0.0,2.0,35,0.00,,CLR,0.00,VWS V14.01,2013-06-25 19:39:00,
2013-06-25 14:40:00,95.8,63.0,29.93,WSW,242,2.0,4.0,34,0.00,,CLR,0.00,VWS V14.01,2013-06-25 19:40:00,
2013-06-25 14:44:00,95.4,63.4,29.93,SW,234,0.0,3.0,35,0.00,,CLR,0.00,VWS V14.01,2013-06-25 19:44:00,
2013-06-25 14:49:00,95.6,66.0,29.92,WSW,240,1.0,2.0,38,0.00,,CLR,0.00,VWS V14.01,2013-06-25 19:49:00,
2013-06-25 14:50:00,95.4,65.0,29.93,North,5,1.0,4.0,37,0.00,,CLR,0.00,VWS V14.01,2013-06-25 19:50:00,
2013-06-25 14:54:00,95.6,66.0,29.92,SW,236,2.0,3.0,38,0.00,,CLR,0.00,VWS V14.01,2013-06-25 19:54:00,
2013-06-25 14:59:00,95.6,62.8,29.92,NNW,333,0.0,2.0,34,0.00,,CLR,0.00,VWS V14.01,2013-06-25 19:59:00,
2013-06-25 15:00:00,95.4,65.0,29.92,SW,234,0.0,3.0,37,0.00,,CLR,0.00,VWS V14.01,2013-06-25 20:00:00,
2013-06-25 15:04:00,95.4,65.8,29.92,WNW,302,1.0,3.0,38,0.00,,CLR,0.00,VWS V14.01,2013-06-25 20:04:00,
2013-06-25 15:09:00,95.4,64.2,29.92,SSW,207,0.0,1.0,36,0.00,,CLR,0.00,VWS V14.01,2013-06-25 20:09:00,
2013-06-25 15:10:00,95.6,63.6,29.92,NNW,333,0.0,3.0,35,0.00,,CLR,0.00,VWS V14.01,2013-06-25 20:10:00,
2013-06-25 15:14:00,95.4,67.3,29.92,SSW,205,0.0,4.0,40,0.00,,CLR,0.00,VWS V14.01,2013-06-25 20:14:00,
2013-06-25 15:19:00,95.6,66.7,29.92,South,187,0.0,2.0,39,0.00,,CLR,0.00,VWS V14.01,2013-06-25 20:19:00,
2013-06-25 15:20:00,95.4,65.0,29.92,NW,323,0.0,3.0,37,0.00,,CLR,0.00,VWS V14.01,2013-06-25 20:20:00,
2013-06-25 15:24:00,95.6,63.6,29.92,South,175,0.0,3.0,35,0.00,,CLR,0.00,VWS V14.01,2013-06-25 20:24:00,
2013-06-25 15:29:00,95.6,65.2,29.92,WNW,286,3.0,5.0,37,0.00,,CLR,0.00,VWS V14.01,2013-06-25 20:29:00,
2013-06-25 15:30:00,95.6,64.4,29.92,South,183,2.0,4.0,36,0.00,,CLR,0.00,VWS V14.01,2013-06-25 20:30:00,
2013-06-25 15:34:00,95.6,65.2,29.91,WSW,252,2.0,5.0,37,0.00,,CLR,0.00,VWS V14.01,2013-06-25 20:34:00,
2013-06-25 15:39:00,95.6,65.2,29.91,NNE,17,4.0,4.0,37,0.00,,CLR,0.00,VWS V14.01,2013-06-25 20:39:00,
2013-06-25 15:40:00,95.6,64.4,29.92,South,176,0.0,5.0,36,0.00,,CLR,0.00,VWS V14.01,2013-06-25 20:40:00,
2013-06-25 15:44:00,95.6,63.6,29.91,WSW,252,0.0,4.0,35,0.00,,CLR,0.00,VWS V14.01,2013-06-25 20:44:00,
2013-06-25 15:49:00,95.6,65.2,29.91,SSW,203,1.0,5.0,37,0.00,,CLR,0.00,VWS V14.01,2013-06-25 20:49:00,
2013-06-25 15:50:00,95.6,62.8,29.91,West,277,0.0,5.0,34,0.00,,CLR,0.00,VWS V14.01,2013-06-25 20:50:00,
2013-06-25 15:54:00,95.4,64.2,29.91,SSW,213,0.0,5.0,36,0.00,,CLR,0.00,VWS V14.01,2013-06-25 20:54:00,
2013-06-25 15:59:00,95.1,65.5,29.91,NNW,346,2.0,3.0,38,0.00,,CLR,0.00,VWS V14.01,2013-06-25 20:59:00,
2013-06-25 16:00:00,95.6,65.2,29.91,WSW,253,0.0,4.0,37,0.00,,CLR,0.00,VWS V14.01,2013-06-25 21:00:00,
2013-06-25 16:04:00,95.1,62.3,29.90,SW,215,0.0,5.0,34,0.00,,CLR,0.00,VWS V14.01,2013-06-25 21:04:00,
2013-06-25 16:09:00,94.9,63.8,29.90,SW,217,0.0,2.0,36,0.00,,CLR,0.00,VWS V14.01,2013-06-25 21:09:00,
2013-06-25 16:10:00,95.1,64.8,29.91,SW,215,0.0,5.0,37,0.00,,CLR,0.00,VWS V14.01,2013-06-25 21:10:00,
2013-06-25 16:14:00,94.6,66.6,29.90,NNE,28,0.0,4.0,40,0.00,,CLR,0.00,VWS V14.01,2013-06-25 21:14:00,
2013-06-25 16:19:00,94.6,66.6,29.90,SSW,196,2.0,2.0,40,0.00,,CLR,0.00,VWS V14.01,2013-06-25 21:19:00,
2013-06-25 16:20:00,95.1,63.2,29.90,SSW,211,0.0,5.0,35,0.00,,CLR,0.00,VWS V14.01,2013-06-25 21:20:00,
2013-06-25 16:24:00,94.6,65.8,29.90,WNW,296,1.0,3.0,39,0.00,,CLR,0.00,VWS V14.01,2013-06-25 21:24:00,
2013-06-25 16:29:00,94.4,64.9,29.90,SSW,212,0.0,3.0,38,0.00,,CLR,0.00,VWS V14.01,2013-06-25 21:29:00,
2013-06-25 16:30:00,94.6,64.3,29.90,SSW,199,0.0,4.0,37,0.00,,CLR,0.00,VWS V14.01,2013-06-25 21:30:00,
2013-06-25 16:34:00,94.2,66.2,29.89,SSW,205,0.0,4.0,40,0.00,,CLR,0.00,VWS V14.01,2013-06-25 21:34:00,
2013-06-25 16:39:00,94.4,68.5,29.89,SW,223,0.0,3.0,43,0.00,,CLR,0.00,VWS V14.01,2013-06-25 21:39:00,
2013-06-25 16:40:00,94.4,64.9,29.90,SSW,212,3.0,3.0,38,0.00,,CLR,0.00,VWS V14.01,2013-06-25 21:40:00,
2013-06-25 16:44:00,94.4,65.7,29.89,SW,223,1.0,3.0,39,0.00,,CLR,0.00,VWS V14.01,2013-06-25 21:44:00,
2013-06-25 16:49:00,94.2,65.5,29.89,NNW,348,2.0,4.0,39,0.00,,CLR,0.00,VWS V14.01,2013-06-25 21:49:00,
2013-06-25 16:50:00,94.2,66.2,29.89,SSW,205,0.0,4.0,40,0.00,,CLR,0.00,VWS V14.01,2013-06-25 21:50:00,
2013-06-25 16:54:00,93.8,65.1,29.89,SW,234,0.0,9.0,39,0.00,,CLR,0.00,VWS V14.01,2013-06-25 21:54:00,
2013-06-25 16:59:00,93.8,67.2,29.89,WNW,292,0.0,2.0,42,0.00,,CLR,0.00,VWS V14.01,2013-06-25 21:59:00,
2013-06-25 17:00:00,94.2,66.2,29.89,NNE,15,4.0,4.0,40,0.00,,CLR,0.00,VWS V14.01,2013-06-25 22:00:00,
2013-06-25 17:04:00,93.8,68.6,29.89,WNW,292,0.0,2.0,44,0.00,,CLR,0.00,VWS V14.01,2013-06-25 22:04:00,
2013-06-25 17:09:00,93.8,67.2,29.89,WNW,292,0.0,1.0,42,0.00,,CLR,0.00,VWS V14.01,2013-06-25 22:09:00,
2013-06-25 17:10:00,93.8,65.1,29.89,WNW,292,1.0,9.0,39,0.00,,CLR,0.00,VWS V14.01,2013-06-25 22:10:00,
2013-06-25 17:14:00,93.8,66.6,29.89,WSW,250,0.0,3.0,41,0.00,,CLR,0.00,VWS V14.01,2013-06-25 22:14:00,
2013-06-25 17:19:00,93.5,64.8,29.89,West,267,0.0,0.0,39,0.00,,CLR,0.00,VWS V14.01,2013-06-25 22:19:00,
2013-06-25 17:20:00,93.8,67.9,29.89,WNW,292,0.0,4.0,43,0.00,,CLR,0.00,VWS V14.01,2013-06-25 22:20:00,
2013-06-25 17:24:00,93.5,66.3,29.89,NNW,331,1.0,3.0,41,0.00,,CLR,0.00,VWS V14.01,2013-06-25 22:24:00,
2013-06-25 17:29:00,93.3,65.4,29.89,SSW,213,1.0,3.0,40,0.00,,CLR,0.00,VWS V14.01,2013-06-25 22:29:00,
2013-06-25 17:30:00,93.5,66.3,29.89,West,267,0.0,4.0,41,0.00,,CLR,0.00,VWS V14.01,2013-06-25 22:30:00,
2013-06-25 17:34:00,93.1,65.2,29.89,West,273,1.0,3.0,40,0.00,,CLR,0.00,VWS V14.01,2013-06-25 22:34:00,
2013-06-25 17:39:00,93.1,65.9,29.89,West,275,0.0,0.0,41,0.00,,CLR,0.00,VWS V14.01,2013-06-25 22:39:00,
2013-06-25 17:40:00,93.5,65.6,29.89,NNW,331,1.0,3.0,40,0.00,,CLR,0.00,VWS V14.01,2013-06-25 22:40:00,
2013-06-25 17:44:00,93.1,65.2,29.89,NW,321,1.0,4.0,40,0.00,,CLR,0.00,VWS V14.01,2013-06-25 22:44:00,
2013-06-25 17:49:00,92.7,66.3,29.89,South,180,0.0,1.0,42,0.00,,CLR,0.00,VWS V14.01,2013-06-25 22:49:00,
2013-06-25 17:50:00,93.1,65.9,29.89,West,275,0.0,3.0,41,0.00,,CLR,0.00,VWS V14.01,2013-06-25 22:50:00,
2013-06-25 17:54:00,92.4,63.1,29.89,South,180,0.0,1.0,38,0.00,,CLR,0.00,VWS V14.01,2013-06-25 22:54:00,
2013-06-25 17:59:00,92.2,65.8,29.89,South,180,0.0,0.0,42,0.00,,CLR,0.00,VWS V14.01,2013-06-25 22:59:00,
2013-06-25 18:00:00,92.9,65.8,29.89,South,180,0.0,4.0,41,0.00,,CLR,0.00,VWS V14.01,2013-06-25 23:00:00,
2013-06-25 18:04:00,92.2,64.4,29.88,South,180,0.0,2.0,40,0.00,,FEW065,0.00,VWS V14.01,2013-06-25 23:04:00,
2013-06-25 18:09:00,92.0,65.6,29.88,SSW,202,0.0,1.0,42,0.00,,FEW065,0.00,VWS V14.01,2013-06-25 23:09:00,
2013-06-25 18:10:00,92.2,65.1,29.89,South,180,0.0,1.0,41,0.00,,CLR,0.00,VWS V14.01,2013-06-25 23:10:00,
2013-06-25 18:14:00,91.8,66.1,29.88,SSW,201,0.0,1.0,43,0.00,,FEW065,0.00,VWS V14.01,2013-06-25 23:14:00,
2013-06-25 18:19:00,91.8,66.1,29.87,SSW,202,0.0,1.0,43,0.00,,FEW065,0.00,VWS V14.01,2013-06-25 23:19:00,
2013-06-25 18:20:00,92.0,64.2,29.88,SSW,202,1.0,2.0,40,0.00,,CLR,0.00,VWS V14.01,2013-06-25 23:20:00,
2013-06-25 18:24:00,91.6,66.0,29.87,NNE,22,0.0,3.0,43,0.00,,FEW065,0.00,VWS V14.01,2013-06-25 23:24:00,
2013-06-25 18:29:00,91.3,65.7,29.87,NNE,22,0.0,1.0,43,0.00,,FEW065,0.00,VWS V14.01,2013-06-25 23:29:00,
2013-06-25 18:30:00,91.8,66.1,29.87,SSW,202,0.0,1.0,43,0.00,,CLR,0.00,VWS V14.01,2013-06-25 23:30:00,
2013-06-25 18:34:00,91.3,66.3,29.87,NNE,22,0.0,2.0,44,0.00,,FEW065,0.00,VWS V14.01,2013-06-25 23:34:00,
2013-06-25 18:39:00,91.1,66.2,29.87,WSW,237,1.0,1.0,44,0.00,,FEW065,0.00,VWS V14.01,2013-06-25 23:39:00,
2013-06-25 18:40:00,91.6,66.6,29.87,NNE,22,0.0,3.0,44,0.00,,CLR,0.00,VWS V14.01,2013-06-25 23:40:00,
2013-06-25 18:44:00,91.1,66.2,29.87,WSW,238,1.0,1.0,44,0.00,,FEW065,0.00,VWS V14.01,2013-06-25 23:44:00,
2013-06-25 18:49:00,90.9,66.0,29.87,NNW,333,0.0,1.0,44,0.00,,FEW065,0.00,VWS V14.01,2013-06-25 23:49:00,
2013-06-25 18:50:00,91.1,66.2,29.87,WSW,237,0.0,3.0,44,0.00,,CLR,0.00,VWS V14.01,2013-06-25 23:50:00,
2013-06-25 18:54:00,90.9,66.0,29.87,NNW,333,0.0,2.0,44,0.00,,FEW065,0.00,VWS V14.01,2013-06-25 23:54:00,
2013-06-25 18:59:00,90.7,65.8,29.87,NE,46,0.0,1.0,44,0.00,,FEW065,0.00,VWS V14.01,2013-06-25 23:59:00,
2013-06-25 19:00:00,91.1,66.8,29.87,NNW,333,1.0,2.0,45,0.00,,CLR,0.00,VWS V14.01,2013-06-26 00:00:00,
2013-06-25 19:04:00,90.5,66.3,29.87,NNE,31,0.0,3.0,45,0.00,,CLR,0.00,VWS V14.01,2013-06-26 00:04:00,
2013-06-25 19:09:00,90.5,66.3,29.87,WSW,252,1.0,5.0,45,0.00,,CLR,0.00,VWS V14.01,2013-06-26 00:09:00,
2013-06-25 19:10:00,90.7,65.2,29.87,NE,46,0.0,2.0,43,0.00,,CLR,0.00,VWS V14.01,2013-06-26 00:10:00,
2013-06-25 19:14:00,90.2,65.4,29.87,West,269,0.0,5.0,44,0.00,,CLR,0.00,VWS V14.01,2013-06-26 00:14:00,
2013-06-25 19:19:00,90.0,65.2,29.87,WSW,247,0.0,1.0,44,0.00,,CLR,0.00,VWS V14.01,2013-06-26 00:19:00,
2013-06-25 19:20:00,90.5,65.6,29.87,WSW,246,0.0,5.0,44,0.00,,CLR,0.00,VWS V14.01,2013-06-26 00:20:00,
2013-06-25 19:24:00,89.8,65.0,29.87,NNW,339,0.0,4.0,44,0.00,,CLR,0.00,VWS V14.01,2013-06-26 00:24:00,
2013-06-25 19:29:00,89.6,66.1,29.87,NNW,339,0.0,1.0,46,0.00,,CLR,0.00,VWS V14.01,2013-06-26 00:29:00,
2013-06-25 19:30:00,90.0,65.2,29.87,West,269,1.0,5.0,44,0.00,,CLR,0.00,VWS V14.01,2013-06-26 00:30:00,
2013-06-25 19:34:00,89.4,66.5,29.87,NNW,338,0.0,2.0,47,0.00,,CLR,0.00,VWS V14.01,2013-06-26 00:34:00,
2013-06-25 19:39:00,89.0,66.2,29.87,West,265,4.0,4.0,47,0.00,,CLR,0.00,VWS V14.01,2013-06-26 00:39:00,
2013-06-25 19:40:00,89.8,66.3,29.87,NNW,339,0.0,4.0,46,0.00,,CLR,0.00,VWS V14.01,2013-06-26 00:40:00,
2013-06-25 19:44:00,88.8,66.6,29.87,SSW,202,0.0,4.0,48,0.00,,CLR,0.00,VWS V14.01,2013-06-26 00:44:00,
2013-06-25 19:49:00,88.5,66.3,29.87,SSW,202,0.0,1.0,48,0.00,,CLR,0.00,VWS V14.01,2013-06-26 00:49:00,
2013-06-25 19:50:00,89.2,66.3,29.87,NNW,338,0.0,2.0,47,0.00,,CLR,0.00,VWS V14.01,2013-06-26 00:50:00,
2013-06-25 19:54:00,88.3,66.7,29.87,South,190,0.0,5.0,49,0.00,,CLR,0.00,VWS V14.01,2013-06-26 00:54:00,
2013-06-25 19:59:00,88.1,67.1,29.87,NNE,23,0.0,3.0,50,0.00,,CLR,0.00,VWS V14.01,2013-06-26 00:59:00,
2013-06-25 20:00:00,88.5,66.9,29.87,SSW,202,0.0,4.0,49,0.00,,CLR,0.00,VWS V14.01,2013-06-26 01:00:00,
2013-06-25 20:04:00,87.9,66.9,29.88,NNE,23,2.0,3.0,50,0.00,,CLR,0.00,VWS V14.01,2013-06-26 01:04:00,
2013-06-25 20:09:00,87.5,67.2,29.88,SW,223,0.0,4.0,51,0.00,,CLR,0.00,VWS V14.01,2013-06-26 01:09:00,
2013-06-25 20:10:00,88.1,67.1,29.87,South,190,0.0,5.0,50,0.00,,CLR,0.00,VWS V14.01,2013-06-26 01:10:00,
2013-06-25 20:14:00,87.5,67.7,29.88,SW,215,0.0,4.0,52,0.00,,CLR,0.00,VWS V14.01,2013-06-26 01:14:00,
2013-06-25 20:19:00,87.1,67.9,29.88,SW,215,0.0,0.0,53,0.00,,CLR,0.00,VWS V14.01,2013-06-26 01:19:00,
2013-06-25 20:20:00,87.7,67.3,29.88,NNE,23,0.0,3.0,51,0.00,,CLR,0.00,VWS V14.01,2013-06-26 01:20:00,
2013-06-25 20:24:00,86.9,68.3,29.88,NW,321,0.0,8.0,54,0.00,,CLR,0.00,VWS V14.01,2013-06-26 01:24:00,
2013-06-25 20:29:00,86.5,68.4,29.88,NW,320,0.0,2.0,55,0.00,,CLR,0.00,VWS V14.01,2013-06-26 01:29:00,
2013-06-25 20:30:00,87.3,68.1,29.88,SW,215,0.0,4.0,53,0.00,,CLR,0.00,VWS V14.01,2013-06-26 01:30:00,
2013-06-25 20:34:00,86.2,68.7,29.89,NW,321,0.0,3.0,56,0.00,,CLR,0.00,VWS V14.01,2013-06-26 01:34:00,
2013-06-25 20:39:00,86.0,69.0,29.89,West,261,0.0,1.0,57,0.00,,CLR,0.00,VWS V14.01,2013-06-26 01:39:00,
2013-06-25 20:40:00,86.7,68.6,29.88,NW,321,0.0,8.0,55,0.00,,CLR,0.00,VWS V14.01,2013-06-26 01:40:00,
2013-06-25 20:44:00,85.8,68.8,29.89,SSW,210,0.0,1.0,57,0.00,,CLR,0.00,VWS V14.01,2013-06-26 01:44:00,
2013-06-25 20:49:00,85.4,69.0,29.89,NW,319,0.0,2.0,58,0.00,,CLR,0.00,VWS V14.01,2013-06-26 01:49:00,
2013-06-25 20:50:00,86.0,68.5,29.89,West,261,0.0,3.0,56,0.00,,CLR,0.00,VWS V14.01,2013-06-26 01:50:00,
2013-06-25 20:54:00,85.4,69.0,29.89,North,350,0.0,2.0,58,0.00,,CLR,0.00,VWS V14.01,2013-06-26 01:54:00,
2013-06-25 20:59:00,85.2,68.8,29.89,North,350,1.0,1.0,58,0.00,,CLR,0.00,VWS V14.01,2013-06-26 01:59:00,
2013-06-25 21:00:00,85.6,68.6,29.89,SSW,212,0.0,6.0,57,0.00,,CLR,0.00,VWS V14.01,2013-06-26 02:00:00,
2013-06-25 21:04:00,85.0,68.1,29.89,North,350,0.0,1.0,57,0.00,,CLR,0.00,VWS V14.01,2013-06-26 02:04:00,
2013-06-25 21:09:00,84.8,67.9,29.89,WSW,246,0.0,2.0,57,0.00,,CLR,0.00,VWS V14.01,2013-06-26 02:09:00,
2013-06-25 21:10:00,85.2,68.3,29.89,North,350,0.0,2.0,57,0.00,,CLR,0.00,VWS V14.01,2013-06-26 02:10:00,
2013-06-25 21:14:00,84.6,68.2,29.89,SW,226,0.0,4.0,58,0.00,,CLR,0.00,VWS V14.01,2013-06-26 02:14:00,
2013-06-25 21:19:00,84.4,68.0,29.90,West,273,0.0,0.0,58,0.00,,CLR,0.00,VWS V14.01,2013-06-26 02:19:00,
2013-06-25 21:20:00,84.8,68.4,29.89,North,350,1.0,1.0,58,0.00,,CLR,0.00,VWS V14.01,2013-06-26 02:20:00,
2013-06-25 21:24:00,84.2,68.3,29.90,West,259,0.0,6.0,59,0.00,,CLR,0.00,VWS V14.01,2013-06-26 02:24:00,
2013-06-25 21:29:00,84.0,68.1,29.90,West,259,0.0,1.0,59,0.00,,CLR,0.00,VWS V14.01,2013-06-26 02:29:00,
2013-06-25 21:30:00,84.6,68.2,29.90,West,273,0.0,5.0,58,0.00,,CLR,0.00,VWS V14.01,2013-06-26 02:30:00,
2013-06-25 21:34:00,83.8,68.0,29.90,SSW,209,0.0,4.0,59,0.00,,CLR,0.00,VWS V14.01,2013-06-26 02:34:00,
2013-06-25 21:39:00,83.6,68.3,29.90,SSW,209,0.0,0.0,60,0.00,,CLR,0.00,VWS V14.01,2013-06-26 02:39:00,
2013-06-25 21:40:00,84.2,68.3,29.90,West,259,0.0,6.0,59,0.00,,CLR,0.00,VWS V14.01,2013-06-26 02:40:00,
2013-06-25 21:44:00,83.5,68.2,29.90,SSW,209,0.0,1.0,60,0.00,,CLR,0.00,VWS V14.01,2013-06-26 02:44:00,
2013-06-25 21:49:00,83.3,68.5,29.90,SSW,209,0.0,0.0,61,0.00,,CLR,0.00,VWS V14.01,2013-06-26 02:49:00,
2013-06-25 21:50:00,83.8,68.4,29.90,SSW,209,0.0,4.0,60,0.00,,CLR,0.00,VWS V14.01,2013-06-26 02:50:00,
2013-06-25 21:54:00,82.9,68.1,29.90,SSW,209,0.0,1.0,61,0.00,,CLR,0.00,VWS V14.01,2013-06-26 02:54:00,
2013-06-25 21:59:00,82.7,68.4,29.90,SSW,209,0.0,0.0,62,0.00,,CLR,0.00,VWS V14.01,2013-06-26 02:59:00,
2013-06-25 22:00:00,83.3,68.5,29.90,SSW,209,0.0,1.0,61,0.00,,CLR,0.00,VWS V14.01,2013-06-26 03:00:00,
2013-06-25 22:04:00,82.5,68.2,29.91,SSW,209,0.0,0.0,62,0.00,,CLR,0.00,VWS V14.01,2013-06-26 03:04:00,
2013-06-25 22:09:00,82.3,68.0,29.91,West,271,0.0,1.0,62,0.00,,CLR,0.00,VWS V14.01,2013-06-26 03:09:00,
2013-06-25 22:10:00,82.9,68.1,29.90,SSW,209,0.0,1.0,61,0.00,,CLR,0.00,VWS V14.01,2013-06-26 03:10:00,
2013-06-25 22:14:00,82.1,67.8,29.91,WNW,296,0.0,6.0,62,0.00,,CLR,0.00,VWS V14.01,2013-06-26 03:14:00,
2013-06-25 22:19:00,81.9,68.1,29.91,NNE,22,0.0,0.0,63,0.00,,CLR,0.00,VWS V14.01,2013-06-26 03:19:00,
2013-06-25 22:20:00,82.3,67.5,29.91,West,270,0.0,2.0,61,0.00,,CLR,0.00,VWS V14.01,2013-06-26 03:20:00,
2013-06-25 22:24:00,81.7,67.9,29.91,North,9,0.0,3.0,63,0.00,,CLR,0.00,VWS V14.01,2013-06-26 03:24:00,
2013-06-25 22:29:00,81.5,68.2,29.91,NNW,340,3.0,4.0,64,0.00,,CLR,0.00,VWS V14.01,2013-06-26 03:29:00,
2013-06-25 22:30:00,82.1,67.8,29.91,NNE,22,0.0,6.0,62,0.00,,CLR,0.00,VWS V14.01,2013-06-26 03:30:00,
2013-06-25 22:34:00,81.3,68.0,29.92,NNW,336,0.0,4.0,64,0.00,,CLR,0.00,VWS V14.01,2013-06-26 03:34:00,
2013-06-25 22:39:00,81.1,67.8,29.92,NNW,336,0.0,0.0,64,0.00,,CLR,0.00,VWS V14.01,2013-06-26 03:39:00,
2013-06-25 22:40:00,81.7,67.9,29.91,North,9,0.0,3.0,63,0.00,,CLR,0.00,VWS V14.01,2013-06-26 03:40:00,
2013-06-25 22:44:00,80.9,68.5,29.92,NNW,337,0.0,1.0,66,0.00,,CLR,0.00,VWS V14.01,2013-06-26 03:44:00,
2013-06-25 22:49:00,80.7,68.3,29.92,NNW,336,0.0,3.0,66,0.00,,CLR,0.00,VWS V14.01,2013-06-26 03:49:00,
2013-06-25 22:50:00,81.3,68.4,29.92,NNW,336,0.0,4.0,65,0.00,,CLR,0.00,VWS V14.01,2013-06-26 03:50:00,
2013-06-25 22:54:00,80.6,68.6,29.92,NNW,336,0.0,3.0,67,0.00,,CLR,0.00,VWS V14.01,2013-06-26 03:54:00,
2013-06-25 22:59:00,80.2,68.7,29.92,NNW,336,0.0,0.0,68,0.00,,CLR,0.00,VWS V14.01,2013-06-26 03:59:00,
2013-06-25 23:00:00,80.9,68.5,29.92,NNW,336,0.0,1.0,66,0.00,,CLR,0.00,VWS V14.01,2013-06-26 04:00:00,
2013-06-25 23:01:00,80.2,68.7,29.92,NNW,336,0.0,0.0,68,0.00,,CLR,0.00,VWS V14.01,2013-06-26 04:01:00,
2013-06-25 23:06:00,80.0,68.9,29.92,WSW,258,1.0,6.0,69,0.00,,CLR,0.00,VWS V14.01,2013-06-26 04:06:00,
2013-06-25 23:10:00,80.4,68.4,29.92,NNW,336,0.0,3.0,67,0.00,,CLR,0.00,VWS V14.01,2013-06-26 04:10:00,
2013-06-25 23:11:00,79.8,68.7,29.92,WSW,257,0.0,2.0,69,0.00,,CLR,0.00,VWS V14.01,2013-06-26 04:11:00,
2013-06-25 23:16:00,79.8,69.2,29.93,WSW,257,0.0,2.0,70,0.00,,CLR,0.00,VWS V14.01,2013-06-26 04:16:00,
2013-06-25 23:20:00,80.0,68.9,29.92,WSW,258,0.0,6.0,69,0.00,,CLR,0.00,VWS V14.01,2013-06-26 04:20:00,
2013-06-25 23:21:00,79.6,69.4,29.93,WSW,257,0.0,1.0,71,0.00,,CLR,0.00,VWS V14.01,2013-06-26 04:21:00,
2013-06-25 23:26:00,79.4,69.2,29.93,WSW,257,0.0,1.0,71,0.00,,CLR,0.00,VWS V14.01,2013-06-26 04:26:00,
2013-06-25 23:30:00,79.6,69.0,29.93,WSW,257,0.0,2.0,70,0.00,,CLR,0.00,VWS V14.01,2013-06-26 04:30:00,
2013-06-25 23:31:00,79.3,69.5,29.94,WSW,257,0.0,0.0,72,0.00,,CLR,0.00,VWS V14.01,2013-06-26 04:31:00,
2013-06-25 23:36:00,79.1,69.7,29.94,West,278,3.0,3.0,73,0.00,,CLR,0.00,VWS V14.01,2013-06-26 04:36:00,
2013-06-25 23:40:00,79.4,69.2,29.93,WSW,257,0.0,1.0,71,0.00,,CLR,0.00,VWS V14.01,2013-06-26 04:40:00,
2013-06-25 23:41:00,78.9,69.5,29.94,WNW,292,0.0,1.0,73,0.00,,CLR,0.00,VWS V14.01,2013-06-26 04:41:00,
2013-06-25 23:46:00,78.7,69.7,29.95,WNW,292,0.0,1.0,74,0.00,,CLR,0.00,VWS V14.01,2013-06-26 04:46:00,
2013-06-25 23:50:00,79.1,69.7,29.94,WNW,292,0.0,4.0,73,0.00,,CLR,0.00,VWS V14.01,2013-06-26 04:50:00,
2013-06-25 23:51:00,78.7,69.7,29.95,WNW,292,0.0,1.0,74,0.00,,CLR,0.00,VWS V14.01,2013-06-26 04:51:00,
2013-06-25 23:56:00,78.5,69.9,29.95,NW,315,0.0,3.0,75,0.00,,CLR,0.00,VWS V14.01,2013-06-26 04:56:00,